| time (UTC) | temp F | wind direction | speed MPH | gust MPH | rain 1hr in | rain 24hr in | rain mn in | humidity % | barometer mb |
| 20260505003521 | 63 | 199 | 3.0 | 7.0 | 0.00 | 0.00 | 0.00 | 48 | 1002.4 |
| 20260505003039 | 63 | 210 | 2.0 | 7.0 | 0.00 | 0.00 | 0.00 | 47 | 1002.5 |
| 20260505002521 | 63 | 182 | 2.0 | 6.0 | 0.00 | 0.00 | 0.00 | 47 | 1002.5 |
| 20260505002021 | 63 | 204 | 1.0 | 7.0 | 0.00 | 0.00 | 0.00 | 46 | 1002.6 |
| 20260505001537 | 64 | 192 | 3.0 | 9.0 | 0.00 | 0.00 | 0.00 | 45 | 1002.6 |
| 20260505001020 | 64 | 218 | 3.0 | 9.0 | 0.00 | 0.00 | 0.00 | 45 | 1002.6 |
| 20260505000522 | 64 | 203 | 3.0 | 9.0 | 0.00 | 0.00 | 0.00 | 45 | 1002.7 |
| 20260505000045 | 64 | 192 | 3.0 | 9.0 | 0.00 | 0.00 | 0.00 | 45 | 1002.6 |
| 20260504235523 | 65 | 203 | 4.0 | 9.0 | 0.00 | 0.00 | 0.00 | 46 | 1002.7 |
| 20260504235021 | 65 | 197 | 2.0 | 7.0 | 0.00 | 0.00 | 0.00 | 46 | 1002.6 |
| 20260504234603 | 66 | 196 | 3.0 | 12.0 | 0.00 | 0.00 | 0.00 | 45 | 1002.5 |
| 20260504234021 | 66 | 190 | 4.0 | 12.0 | 0.00 | 0.00 | 0.00 | 45 | 1002.7 |
| 20260504233520 | 66 | 161 | 3.0 | 9.0 | 0.00 | 0.00 | 0.00 | 45 | 1002.7 |
| 20260504233038 | 67 | 200 | 3.0 | 8.0 | 0.00 | 0.00 | 0.00 | 44 | 1002.7 |
| 20260504232521 | 67 | 242 | 2.0 | 8.0 | 0.00 | 0.00 | 0.00 | 44 | 1002.8 |
| 20260504232020 | 67 | 216 | 4.0 | 10.0 | 0.00 | 0.00 | 0.00 | 44 | 1002.7 |
| 20260504231549 | 67 | 231 | 3.0 | 10.0 | 0.00 | 0.00 | 0.00 | 43 | 1002.7 |
| 20260504231020 | 67 | 184 | 3.0 | 9.0 | 0.00 | 0.00 | 0.00 | 43 | 1002.9 |
| 20260504230520 | 67 | 187 | 3.0 | 11.0 | 0.00 | 0.00 | 0.00 | 43 | 1002.8 |
| 20260504230037 | 67 | 201 | 3.0 | 11.0 | 0.00 | 0.00 | 0.00 | 42 | 1002.8 |
| 20260504225528 | 68 | 223 | 5.0 | 11.0 | 0.00 | 0.00 | 0.00 | 41 | 1002.8 |
| 20260504225021 | 68 | 216 | 3.0 | 10.0 | 0.00 | 0.00 | 0.00 | 41 | 1002.8 |
| 20260504224542 | 68 | 131 | 4.0 | 8.0 | 0.00 | 0.00 | 0.00 | 40 | 1002.7 |
| 20260504224023 | 69 | 196 | 3.0 | 8.0 | 0.00 | 0.00 | 0.00 | 40 | 1002.8 |
| 20260504223521 | 69 | 215 | 5.0 | 9.0 | 0.00 | 0.00 | 0.00 | 37 | 1002.7 |
| 20260504223039 | 69 | 205 | 2.0 | 11.0 | 0.00 | 0.00 | 0.00 | 38 | 1002.7 |
| 20260504222521 | 69 | 211 | 6.0 | 15.0 | 0.00 | 0.00 | 0.00 | 36 | 1002.8 |
| 20260504222021 | 69 | 215 | 5.0 | 15.0 | 0.00 | 0.00 | 0.00 | 36 | 1002.7 |
| 20260504221539 | 69 | 200 | 5.0 | 15.0 | 0.00 | 0.00 | 0.00 | 36 | 1002.6 |
| 20260504221027 | 69 | 256 | 5.0 | 15.0 | 0.00 | 0.00 | 0.00 | 37 | 1002.6 |
| 20260504220524 | 70 | 205 | 3.0 | 9.0 | 0.00 | 0.00 | 0.00 | 36 | 1002.6 |
| 20260504220037 | 70 | 216 | 3.0 | 13.0 | 0.00 | 0.00 | 0.00 | 36 | 1002.5 |
| 20260504215521 | 70 | 218 | 2.0 | 15.0 | 0.00 | 0.00 | 0.00 | 36 | 1002.6 |
| 20260504215021 | 71 | 263 | 7.0 | 15.0 | 0.00 | 0.00 | 0.00 | 36 | 1002.5 |
| 20260504214549 | 71 | 212 | 5.0 | 14.0 | 0.00 | 0.00 | 0.00 | 36 | 1002.5 |
| 20260504214024 | 71 | 214 | 4.0 | 17.0 | 0.00 | 0.00 | 0.00 | 37 | 1002.5 |
| 20260504213524 | 71 | 252 | 7.0 | 17.0 | 0.00 | 0.00 | 0.00 | 37 | 1002.4 |
| 20260504213038 | 71 | 212 | 5.0 | 16.0 | 0.00 | 0.00 | 0.00 | 37 | 1002.3 |
| 20260504212520 | 71 | 250 | 6.0 | 18.0 | 0.00 | 0.00 | 0.00 | 38 | 1002.3 |
| 20260504212020 | 70 | 202 | 7.0 | 18.0 | 0.00 | 0.00 | 0.00 | 36 | 1002.4 |
| 20260504211539 | 70 | 271 | 8.0 | 17.0 | 0.00 | 0.00 | 0.00 | 37 | 1002.5 |
| 20260504211021 | 71 | 216 | 7.0 | 16.0 | 0.00 | 0.00 | 0.00 | 36 | 1002.5 |
| 20260504210525 | 71 | 193 | 8.0 | 15.0 | 0.00 | 0.00 | 0.00 | 36 | 1002.5 |
| 20260504210042 | 72 | 286 | 6.0 | 19.0 | 0.00 | 0.00 | 0.00 | 36 | 1002.6 |
| 20260504205526 | 71 | 246 | 6.0 | 19.0 | 0.00 | 0.00 | 0.00 | 35 | 1002.5 |
| 20260504205020 | 71 | 232 | 7.0 | 19.0 | 0.00 | 0.00 | 0.00 | 36 | 1002.5 |
| 20260504204617 | 71 | 228 | 9.0 | 22.0 | 0.00 | 0.00 | 0.00 | 38 | 1002.7 |
| 20260504204021 | 71 | 309 | 10.0 | 22.0 | 0.00 | 0.00 | 0.00 | 36 | 1002.7 |
| 20260504203520 | 71 | 232 | 5.0 | 16.0 | 0.00 | 0.00 | 0.00 | 40 | 1002.8 |
| 20260504203042 | 71 | 205 | 8.0 | 18.0 | 0.00 | 0.00 | 0.00 | 39 | 1002.7 |
| 20260504202521 | 71 | 217 | 8.0 | 18.0 | 0.00 | 0.00 | 0.00 | 39 | 1002.8 |
| 20260504202021 | 71 | 211 | 7.0 | 16.0 | 0.00 | 0.00 | 0.00 | 39 | 1002.8 |
| 20260504201537 | 71 | 217 | 7.0 | 16.0 | 0.00 | 0.00 | 0.00 | 41 | 1002.8 |
| 20260504201021 | 71 | 238 | 6.0 | 21.0 | 0.00 | 0.00 | 0.00 | 41 | 1002.9 |
| 20260504200521 | 71 | 221 | 6.0 | 21.0 | 0.00 | 0.00 | 0.00 | 40 | 1002.9 |
| 20260504200040 | 71 | 262 | 8.0 | 16.0 | 0.00 | 0.00 | 0.00 | 42 | 1002.9 |
| 20260504195521 | 71 | 168 | 6.0 | 14.0 | 0.00 | 0.00 | 0.00 | 43 | 1003.0 |
| 20260504195020 | 70 | 202 | 7.0 | 15.0 | 0.00 | 0.00 | 0.00 | 43 | 1003.0 |
| 20260504194546 | 70 | 195 | 7.0 | 15.0 | 0.00 | 0.00 | 0.00 | 42 | 1003.2 |
| 20260504194027 | 70 | 169 | 4.0 | 15.0 | 0.00 | 0.00 | 0.00 | 45 | 1003.2 |
| 20260504193522 | 70 | 199 | 6.0 | 17.0 | 0.00 | 0.00 | 0.00 | 44 | 1003.4 |
| 20260504193036 | 70 | 224 | 8.0 | 17.0 | 0.00 | 0.00 | 0.00 | 44 | 1003.6 |
| 20260504192524 | 70 | 204 | 7.0 | 15.0 | 0.00 | 0.00 | 0.00 | 43 | 1003.6 |
| 20260504192020 | 69 | 234 | 7.0 | 15.0 | 0.00 | 0.00 | 0.00 | 45 | 1003.6 |
| 20260504191536 | 69 | 197 | 6.0 | 18.0 | 0.00 | 0.00 | 0.00 | 46 | 1003.9 |
| 20260504191021 | 69 | 171 | 8.0 | 18.0 | 0.00 | 0.00 | 0.00 | 45 | 1003.9 |
| 20260504190526 | 69 | 298 | 7.0 | 16.0 | 0.00 | 0.00 | 0.00 | 45 | 1004.0 |
| 20260504190042 | 69 | 213 | 6.0 | 16.0 | 0.00 | 0.00 | 0.00 | 44 | 1004.0 |
| 20260504185523 | 69 | 229 | 6.0 | 13.0 | 0.00 | 0.00 | 0.00 | 45 | 1004.1 |
| 20260504185023 | 69 | 259 | 6.0 | 18.0 | 0.00 | 0.00 | 0.00 | 47 | 1004.1 |
| 20260504184542 | 68 | 187 | 7.0 | 24.0 | 0.00 | 0.00 | 0.00 | 46 | 1004.1 |
| 20260504184023 | 68 | 203 | 6.0 | 24.0 | 0.00 | 0.00 | 0.00 | 46 | 1004.3 |
| 20260504183521 | 68 | 209 | 6.0 | 18.0 | 0.00 | 0.00 | 0.00 | 46 | 1004.2 |
| 20260504183037 | 68 | 242 | 8.0 | 22.0 | 0.00 | 0.00 | 0.00 | 46 | 1004.4 |
| 20260504182526 | 68 | 223 | 8.0 | 22.0 | 0.00 | 0.00 | 0.00 | 48 | 1004.4 |
| 20260504182021 | 68 | 236 | 9.0 | 22.0 | 0.00 | 0.00 | 0.00 | 47 | 1004.4 |
| 20260504181538 | 68 | 208 | 7.0 | 15.0 | 0.00 | 0.00 | 0.00 | 48 | 1004.5 |
| 20260504181020 | 68 | 235 | 4.0 | 14.0 | 0.00 | 0.00 | 0.00 | 50 | 1004.5 |
| 20260504180524 | 68 | 216 | 7.0 | 14.0 | 0.00 | 0.00 | 0.00 | 50 | 1004.6 |
| 20260504180042 | 68 | 213 | 4.0 | 10.0 | 0.00 | 0.00 | 0.00 | 51 | 1004.7 |
| 20260504175521 | 67 | 217 | 5.0 | 18.0 | 0.00 | 0.00 | 0.00 | 51 | 1004.8 |
| 20260504175021 | 66 | 190 | 6.0 | 18.0 | 0.00 | 0.00 | 0.00 | 51 | 1004.8 |
| 20260504174539 | 66 | 204 | 5.0 | 21.0 | 0.00 | 0.00 | 0.00 | 51 | 1004.9 |
| 20260504174021 | 66 | 207 | 6.0 | 21.0 | 0.00 | 0.00 | 0.00 | 51 | 1004.9 |
| 20260504173521 | 66 | 188 | 5.0 | 13.0 | 0.00 | 0.00 | 0.00 | 51 | 1005.0 |
| 20260504173037 | 66 | 185 | 5.0 | 15.0 | 0.00 | 0.00 | 0.00 | 51 | 1004.9 |
| 20260504172520 | 65 | 207 | 7.0 | 20.0 | 0.00 | 0.00 | 0.00 | 51 | 1004.9 |
| 20260504172021 | 65 | 202 | 6.0 | 20.0 | 0.00 | 0.00 | 0.00 | 51 | 1005.0 |
| 20260504171544 | 65 | 251 | 4.0 | 16.0 | 0.00 | 0.00 | 0.00 | 52 | 1005.0 |
| 20260504171021 | 65 | 240 | 7.0 | 15.0 | 0.00 | 0.00 | 0.00 | 49 | 1005.0 |
| 20260504170521 | 64 | 223 | 6.0 | 18.0 | 0.00 | 0.00 | 0.00 | 51 | 1005.1 |
| 20260504151023 | 61 | 192 | 8.0 | 21.0 | 0.00 | 0.00 | 0.00 | 54 | 1006.0 |
| 20260504150522 | 61 | 233 | 7.0 | 21.0 | 0.00 | 0.00 | 0.00 | 53 | 1006.0 |
| 20260504141027 | 59 | 227 | 8.0 | 22.0 | 0.00 | 0.00 | 0.00 | 54 | 1005.8 |
| 20260504140521 | 59 | 200 | 7.0 | 18.0 | 0.00 | 0.00 | 0.00 | 52 | 1005.8 |
| 20260504130524 | 57 | 211 | 5.0 | 14.0 | 0.00 | 0.00 | 0.00 | 53 | 1006.0 |
| 20260504110523 | 51 | 169 | 5.0 | 9.0 | 0.00 | 0.00 | 0.00 | 59 | 1006.1 |
| 20260504100520 | 51 | 219 | 5.0 | 15.0 | 0.00 | 0.00 | 0.00 | 57 | 1006.0 |
| 20260504081542 | 48 | 190 | 4.0 | 8.0 | 0.00 | 0.00 | 0.00 | 61 | 1006.8 |
| 20260504081021 | 48 | 205 | 3.0 | 10.0 | 0.00 | 0.00 | 0.00 | 61 | 1006.8 |
| 20260504080525 | 48 | 180 | 3.0 | 10.0 | 0.00 | 0.00 | 0.00 | 61 | 1006.8 |
| 20260504050524 | 49 | 192 | 4.0 | 10.0 | 0.00 | 0.00 | 0.00 | 65 | 1008.2 |
| 20260504045522 | 49 | 261 | 1.0 | 4.0 | 0.00 | 0.00 | 0.00 | 65 | 1008.5 |
| 20260504045023 | 49 | 277 | 1.0 | 4.0 | 0.00 | 0.00 | 0.00 | 63 | 1008.3 |
| 20260504044540 | 50 | 272 | 1.0 | 5.0 | 0.00 | 0.00 | 0.00 | 62 | 1008.3 |
| 20260504044020 | 50 | 220 | 0.0 | 6.0 | 0.00 | 0.00 | 0.00 | 61 | 1008.2 |
| 20260504043520 | 50 | 219 | 1.0 | 8.0 | 0.00 | 0.00 | 0.00 | 60 | 1008.2 |
| 20260504043039 | 50 | 254 | 2.0 | 8.0 | 0.00 | 0.00 | 0.00 | 60 | 1008.2 |
| 20260504042520 | 51 | 226 | 2.0 | 9.0 | 0.00 | 0.00 | 0.00 | 59 | 1008.2 |
| 20260504042024 | 51 | 0 | 2.0 | 9.0 | 0.00 | 0.00 | 0.00 | 59 | 1008.2 |
| 20260504041540 | 51 | 254 | 3.0 | 9.0 | 0.00 | 0.00 | 0.00 | 59 | 1008.2 |
| 20260504041021 | 51 | 247 | 3.0 | 13.0 | 0.00 | 0.00 | 0.00 | 58 | 1008.3 |
| 20260504040524 | 51 | 227 | 4.0 | 17.0 | 0.00 | 0.00 | 0.00 | 58 | 1008.2 |
| 20260504040041 | 52 | 245 | 7.0 | 17.0 | 0.00 | 0.00 | 0.00 | 57 | 1008.2 |
| 20260504035521 | 52 | 237 | 4.0 | 15.0 | 0.00 | 0.00 | 0.00 | 56 | 1008.2 |
| 20260504035021 | 52 | 196 | 5.0 | 22.0 | 0.00 | 0.00 | 0.00 | 56 | 1008.2 |
| 20260504034541 | 52 | 185 | 5.0 | 22.0 | 0.00 | 0.00 | 0.00 | 55 | 1008.2 |
| 20260504034020 | 52 | 222 | 7.0 | 22.0 | 0.00 | 0.00 | 0.00 | 54 | 1008.3 |
| 20260504033522 | 52 | 197 | 8.0 | 16.0 | 0.00 | 0.00 | 0.00 | 54 | 1008.3 |
| 20260504033037 | 52 | 292 | 6.0 | 16.0 | 0.00 | 0.00 | 0.00 | 54 | 1008.3 |
| 20260504032520 | 52 | 238 | 8.0 | 16.0 | 0.00 | 0.00 | 0.00 | 54 | 1008.3 |
| 20260504032021 | 52 | 213 | 5.0 | 15.0 | 0.00 | 0.00 | 0.00 | 54 | 1008.3 |
| 20260504031536 | 52 | 222 | 6.0 | 17.0 | 0.00 | 0.00 | 0.00 | 54 | 1008.3 |
| 20260504031020 | 52 | 242 | 5.0 | 21.0 | 0.00 | 0.00 | 0.00 | 54 | 1008.3 |
| 20260504030520 | 53 | 213 | 8.0 | 21.0 | 0.00 | 0.00 | 0.00 | 54 | 1008.3 |
| 20260504030043 | 52 | 219 | 5.0 | 15.0 | 0.00 | 0.00 | 0.00 | 55 | 1008.4 |
| 20260504025521 | 52 | 180 | 6.0 | 15.0 | 0.00 | 0.00 | 0.00 | 55 | 1008.4 |
| 20260504025021 | 52 | 213 | 6.0 | 18.0 | 0.00 | 0.00 | 0.00 | 55 | 1008.4 |
| 20260504024539 | 52 | 201 | 6.0 | 17.0 | 0.00 | 0.00 | 0.00 | 56 | 1008.5 |
| 20260504024024 | 52 | 235 | 7.0 | 16.0 | 0.00 | 0.00 | 0.00 | 56 | 1008.3 |
| 20260504023521 | 52 | 156 | 7.0 | 19.0 | 0.00 | 0.00 | 0.00 | 56 | 1008.5 |
| 20260504023037 | 52 | 212 | 7.0 | 19.0 | 0.00 | 0.00 | 0.00 | 57 | 1008.5 |
| 20260504022521 | 52 | 165 | 6.0 | 19.0 | 0.00 | 0.00 | 0.00 | 57 | 1008.6 |
| 20260504022023 | 52 | 244 | 6.0 | 15.0 | 0.00 | 0.00 | 0.00 | 56 | 1008.7 |
| 20260504021537 | 52 | 209 | 7.0 | 19.0 | 0.00 | 0.00 | 0.00 | 56 | 1008.5 |
| 20260504021020 | 52 | 213 | 7.0 | 19.0 | 0.00 | 0.00 | 0.00 | 55 | 1008.6 |
| 20260504020520 | 52 | 264 | 5.0 | 17.0 | 0.00 | 0.00 | 0.00 | 55 | 1008.6 |
| 20260504020038 | 52 | 214 | 6.0 | 15.0 | 0.00 | 0.00 | 0.00 | 56 | 1008.6 |
| 20260504015520 | 52 | 242 | 5.0 | 18.0 | 0.00 | 0.00 | 0.00 | 56 | 1008.6 |
| 20260504015024 | 52 | 211 | 5.0 | 18.0 | 0.00 | 0.00 | 0.00 | 56 | 1008.6 |
| 20260504014551 | 52 | 212 | 7.0 | 18.0 | 0.00 | 0.00 | 0.00 | 56 | 1008.6 |
| 20260504014024 | 52 | 234 | 6.0 | 18.0 | 0.00 | 0.00 | 0.00 | 56 | 1008.6 |
| 20260504013525 | 52 | 211 | 8.0 | 18.0 | 0.00 | 0.00 | 0.00 | 56 | 1008.7 |
| 20260504013036 | 51 | 232 | 9.0 | 18.0 | 0.00 | 0.00 | 0.00 | 55 | 1008.6 |
| 20260504012522 | 51 | 205 | 8.0 | 17.0 | 0.00 | 0.00 | 0.00 | 56 | 1008.6 |
| 20260504012021 | 51 | 211 | 6.0 | 17.0 | 0.00 | 0.00 | 0.00 | 57 | 1008.6 |
| 20260504011540 | 51 | 177 | 6.0 | 17.0 | 0.00 | 0.00 | 0.00 | 56 | 1008.6 |
| 20260504011020 | 51 | 228 | 5.0 | 17.0 | 0.00 | 0.00 | 0.00 | 56 | 1008.5 |
| 20260504010523 | 51 | 243 | 5.0 | 17.0 | 0.00 | 0.00 | 0.00 | 56 | 1008.5 |
| 20260504010038 | 51 | 214 | 7.0 | 18.0 | 0.00 | 0.00 | 0.00 | 56 | 1008.4 |
| 20260504005525 | 51 | 225 | 10.0 | 18.0 | 0.00 | 0.00 | 0.00 | 56 | 1008.4 |
| 20260504005021 | 51 | 219 | 5.0 | 18.0 | 0.00 | 0.00 | 0.00 | 57 | 1008.4 |
| 20260504004537 | 51 | 228 | 6.0 | 14.0 | 0.00 | 0.00 | 0.00 | 57 | 1008.5 |
| 20260504004020 | 51 | 220 | 5.0 | 12.0 | 0.00 | 0.00 | 0.00 | 57 | 1008.5 |